Charleston, SC

10:00 PM EDT on March 28, 2017 (GMT -0400)
Charleston Air Force Base-International

Weather History for KCHS - March, 2014

Change the Weather History Date:

Friday, March 14, 2014

  Actual Average Record
Temperature  
Mean Temperature 49 °F 58 °F  
Max Temperature 65 °F 69 °F 85 °F (1985)
Min Temperature 33 °F 46 °F 24 °F (1960)
Degree Days  
Heating Degree Days 16 8  
Month to date heating degree days 171 132  
Since 1 July heating degree days 1694 1768  
Cooling Degree Days 0 1  
Month to date cooling degree days 2 12  
Year to date cooling degree days 12 19  
Moisture  
Dew Point 31 °F    
Average Humidity 53    
Maximum Humidity 85    
Minimum Humidity 20    
Precipitation  
Precipitation 0.00 in 0.12 in 1.29 in (1986)
Month to date precipitation 1.76 1.64  
Year to date precipitation 6.61 8.31  
Sea Level Pressure  
Sea Level Pressure 30.28 in    
Wind  
Wind Speed 6 mph (South)    
Max Wind Speed 20 mph    
Max Gust Speed 24 mph    
Visibility 10 miles    
Events      
T = Trace of Precipitation, MM = Missing Value Source: NWS Daily Summary

Daily Weather History Graph

Daily Weather History Graph

Search for Another Location

Airport or City:

Trip Planner

Search our weather history database for the weather conditions in past years. The results will help you decide how hot, cold, wet, or windy it might be!

Date:

Astronomy

Mar. 14, 2014 Rise Set
Actual Time 7:31 AM EDT 7:27 PM EDT
Civil Twilight 7:07 AM EDT 7:51 PM EDT
Nautical Twilight 6:38 AM EDT 8:20 PM EDT
Astronomical Twilight 6:09 AM EDT 8:49 PM EDT
Moon 5:51 PM EDT (3/14) 6:06 AM EDT (3/14)
Length of Visible Light 12h 44m
Length of Day
11h 55m
Waxing Gibbous, 96% of the Moon is Illuminated
Mar 14
Waxing Gibbous
Mar 16
Full
Mar 23
Last Quarter
Mar 30
New
Apr 7
First Quarter

Hourly Weather History & Observations

Time (EDT) Temp. Windchill Dew Point Humidity Pressure Visibility Wind Dir Wind Speed Gust Speed Precip Events Conditions
12:56 AM 39.0 °F - 28.0 °F 65% 30.26 in 10.0 mi Calm Calm - N/A   Clear
1:56 AM 39.0 °F - 28.0 °F 65% 30.27 in 10.0 mi Calm Calm - N/A   Clear
2:56 AM 35.1 °F - 26.1 °F 70% 30.26 in 10.0 mi Calm Calm - N/A   Clear
3:56 AM 36.0 °F - 27.0 °F 70% 30.26 in 10.0 mi Calm Calm - N/A   Clear
4:56 AM 34.0 °F - 27.0 °F 75% 30.28 in 10.0 mi Calm Calm - N/A   Clear
5:56 AM 32.5 °F - 28.9 °F 87% 30.30 in 10.0 mi Calm Calm - N/A   Clear
6:56 AM 33.1 °F 30.0 °F 28.9 °F 85% 30.32 in 10.0 mi NNW 3.5 mph - N/A   Clear
7:56 AM 33.1 °F - 27.0 °F 78% 30.34 in 10.0 mi Calm Calm - N/A   Clear
8:56 AM 43.0 °F - 34.0 °F 71% 30.35 in 10.0 mi Calm Calm - N/A   Clear
9:56 AM 54.0 °F - 32.0 °F 43% 30.36 in 10.0 mi East 5.8 mph - N/A   Clear
10:56 AM 57.0 °F - 25.0 °F 29% 30.38 in 10.0 mi SE 9.2 mph - N/A   Clear
11:56 AM 60.1 °F - 25.0 °F 26% 30.37 in 10.0 mi Variable 6.9 mph - N/A   Clear
12:56 PM 62.1 °F - 21.0 °F 21% 30.36 in 10.0 mi South 9.2 mph - N/A   Clear
1:56 PM 63.0 °F - 27.0 °F 26% 30.34 in 10.0 mi SSE 15.0 mph 19.6 mph N/A   Clear
2:56 PM 64.9 °F - 30.9 °F 28% 30.30 in 10.0 mi South 15.0 mph 24.2 mph N/A   Clear
3:56 PM 64.0 °F - 32.0 °F 30% 30.26 in 10.0 mi South 10.4 mph 21.9 mph N/A   Clear
4:56 PM 63.0 °F - 35.1 °F 35% 30.23 in 10.0 mi South 15.0 mph 21.9 mph N/A   Clear
5:56 PM 63.0 °F - 37.9 °F 40% 30.22 in 10.0 mi South 16.1 mph - N/A   Partly Cloudy
6:56 PM 60.1 °F - 39.0 °F 46% 30.21 in 10.0 mi SSW 9.2 mph - N/A   Partly Cloudy
7:56 PM 53.1 °F - 39.0 °F 59% 30.21 in 10.0 mi SSW 6.9 mph - N/A   Clear
8:56 PM 54.0 °F - 39.0 °F 57% 30.22 in 10.0 mi SSW 4.6 mph - N/A   Clear
9:56 PM 50.0 °F - 39.0 °F 66% 30.20 in 10.0 mi South 5.8 mph - N/A   Clear
10:56 PM 50.0 °F - 37.9 °F 63% 30.20 in 10.0 mi South 5.8 mph - N/A   Clear
11:56 PM 48.9 °F - 37.9 °F 66% 30.20 in 10.0 mi SSW 4.6 mph - N/A   Clear